Location: Observatoire
(46.1952°N, 5.3391°E)
Time: 16:06:13
(UTC+01:00)

Courier 1B - Pass Details

Date: 20 February 2026
Orbit: 962 x 1208 km, 28.3° (Epoch: 5 March)

Event Time Altitude Azimuth Distance (km) Brightness Sun altitude
Rises 19:58:53 0° 226° (SW) 3,851 11.2 -19.2°
Reaches altitude 10° 20:02:38 10° 207° (SSW) 2,947 10.3 -19.8°
Maximum altitude 20:07:02 17° 170° (S) 2,509 9.5 -20.6°
Enters shadow 20:09:14 15° 149° (SSE) 2,661 9.4 -21.0°
